Hourly Data Report for September 25, 2016

SHEARWATER RCS
NOVA SCOTIA

44°37'47.000" N
63°30'48.000" W
24.00 m
8205092
71264
AAW

Download Data

Hourly Data (September 2016)
Hourly Data Report for September 25, 2016
TIME Temp Definition
°C
Dew Point Definition
°C
Rel Hum Definition
%
Wind Dir Definition
10's deg

Wind Spd Definition
km/h
Visibility Definition
km
Stn Press Definition
kPa
Hmdx Definition


Wind Chill Definition


Weather Definition


00:00 7.0 3.6 79 31 7   100.82     LegendNANA
01:00 7.1 3.7 79 33 6   100.82     LegendNANA
02:00 6.6 3.6 81 33 6   100.78     LegendNANA
03:00 6.6 3.7 82 33 8   100.76     LegendNANA
04:00 6.7 3.6 80 32 8   100.77     LegendNANA
05:00 6.7 3.0 78 32 9   100.75     LegendNANA
06:00 6.8 3.3 78 30 10   100.76     LegendNANA
07:00 7.2 3.3 76 31 15   100.79     LegendNANA
08:00 8.0 3.6 73 30 16   100.79     LegendNANA
09:00 9.6 3.2 64 31 19   100.75     LegendNANA
10:00 11.5 3.7 59 31 21   100.74     LegendNANA
11:00 11.3 2.1 53 30 20   100.73     LegendNANA
12:00 12.4 1.6 48 32 20   100.73     LegendNANA
13:00 13.1 2.4 48 32 21   100.72     LegendNANA
14:00 10.4 4.0 65 34 25   100.76     LegendNANA
15:00 12.6 3.9 55 30 17   100.77     LegendNANA
16:00 12.6 2.1 49 34 17   100.79     LegendNANA
17:00 10.6 4.1 64 36 15   100.86     LegendNANA
18:00 8.8 4.6 75 36 12   100.94     LegendNANA
19:00 8.2 4.7 79 33 7   101.00     LegendNANA
20:00 8.1 4.5 78 31 8   101.06     LegendNANA
21:00 7.9 4.9 81 32 8   101.11     LegendNANA
22:00 7.6 4.6 81 32 8   101.13     LegendNANA
23:00 7.6 4.7 82 31 10   101.13     LegendNANA

Notes on Data Quality.

Legend

  • E = Estimated
  • M = Missing
  • NA = Not Available*
  • [empty] = Indicates an unobserved value
Date modified: